Regional Weather Roundup
Issued by NWS Memphis, TN

Home | Current Version | Previous Version | Text Only | Print | Product List | Glossary On
Versions: 1 2 3 4 5 6 7 8 9 10 11 12 13 14 15 16 17 18 19 20 21 22 23 24 25 26 27 28 29 30 31 32 33 34 35 36 37 38 39 40 41 42 43 44 45 46 47 48 49 50
000
ASUS44 KMEG 311210
RWRMEG
MEMPHIS CWA HOURLY WEATHER ROUNDUP
NATIONAL WEATHER SERVICE MEMPHIS TN
600 AM CST SAT JAN 31 2015

...WEST TENNESSEE...

CITY           SKY/WX    TMP DP  RH WIND       PRES   REMARKS
MEMPHIS INTL   CLOUDY    39  21  48 SE6       30.36S WCI  35
6HR MIN TEMP:  38; 6HR MAX TEMP:  40;

NWS MEMPHIS      N/A     35 N/A N/A MISG        N/A
JACKSON        CLOUDY    30  23  75 CALM      30.38R
6HR MIN TEMP:  27; 6HR MAX TEMP:  33;

LEXINGTON      CLEAR     27  21  80 SW7       30.36R WCI  19
SAVANNAH       CLEAR     28  25  86 CALM      30.37R
DYERSBURG      MOCLDY    30  14  51 CALM      30.41R
6HR MIN TEMP:  28; 6HR MAX TEMP:  34;

UNION CITY     CLEAR     28  25  86 SW3       30.38R
PARIS          CLEAR     25  19  80 E5        30.36F WCI  19


...EASTERN ARKANSAS...

CITY           SKY/WX    TMP DP  RH WIND       PRES   REMARKS
JONESBORO      CLOUDY    34  30  85 E5        30.36F WCI  30
6HR MIN TEMP:  31; 6HR MAX TEMP:  34;

WEST MEMPHIS   CLOUDY    37  26  64 SE3       30.36S
6HR MIN TEMP:  33; 6HR MAX TEMP:  37;

BATESVILLE     CLOUDY    36  28  75 CALM      30.35S
6HR MIN TEMP:  36; 6HR MAX TEMP:  37;

NEWPORT        CLOUDY    35  33  92 CALM      30.37F
6HR MIN TEMP:  34; 6HR MAX TEMP:  36;

WALNUT RIDGE   CLOUDY    34  28  80 CALM      30.38S
6HR MIN TEMP:  32; 6HR MAX TEMP:  34;

BLYTHEVILLE    MOCLDY    33  27  78 SE3       30.39R
6HR MIN TEMP:  30; 6HR MAX TEMP:  35;

SEARCY         CLOUDY    37  30  75 CALM      30.38S
6HR MIN TEMP:  36; 6HR MAX TEMP:  38;

STUTTGART      CLOUDY    37  28  70 E7        30.35S WCI  32
6HR MIN TEMP:  37; 6HR MAX TEMP:  39;

PINE BLUFF     CLOUDY    38  29  70 E8        30.35F WCI  32
6HR MIN TEMP:  35; 6HR MAX TEMP:  38;

MONTICELLO     PTCLDY    35  29  78 E5        30.34S WCI  31
6HR MIN TEMP:  31; 6HR MAX TEMP:  36;



...NORTH MISSISSIPPI...

CITY           SKY/WX    TMP DP  RH WIND       PRES   REMARKS
TUPELO         MOCLDY    32  24  72 CALM      30.37S
6HR MIN TEMP:  29; 6HR MAX TEMP:  33;

OXFORD         MOCLDY    36  19  51 E3        30.38S
TUNICA         CLOUDY    36  28  75 E3        30.38S
CLARKSDALE     CLOUDY    37  30  75 E7        30.37F WCI  32
CORINTH        MOCLDY    32  28  86 CALM      30.37R
GRENADA        PTCLDY    34  28  80 NE3       30.39R
GREENWOOD      PTCLDY    33  27  78 CALM      30.37R
6HR MIN TEMP:  27; 6HR MAX TEMP:  35;

COLUMBUS       CLOUDY    31  27  86 CALM      30.37S
6HR MIN TEMP:  26; 6HR MAX TEMP:  31;

STARKVILLE     FAIR      34  25  69 E3        30.37S
GOLDEN TRIANGL CLEAR     30  27  86 CALM      30.36R


...SOUTHEAST MISSOURI...

CITY           SKY/WX    TMP DP  RH WIND       PRES   REMARKS
WEST PLAINS    CLOUDY    34  23  64 CALM      30.32S
6HR MIN TEMP:  33; 6HR MAX TEMP:  34;

POPLAR BLUFF   CLOUDY    31  26  82 CALM      30.36F
6HR MIN TEMP:  29; 6HR MAX TEMP:  31;

CAPE GIRARDEAU MOCLDY    31  25  78 E3        30.36F
6HR MIN TEMP:  28; 6HR MAX TEMP:  32;



...NORTHWEST ALABAMA...

CITY           SKY/WX    TMP DP  RH WIND       PRES   REMARKS
MUSCLE SHOALS  MOCLDY    32  24  72 CALM      30.37F
6HR MIN TEMP:  30; 6HR MAX TEMP:  36;



...MIDDLE TENNESSEE...

CITY           SKY/WX    TMP DP  RH WIND       PRES   REMARKS
NASHVILLE      PTCLDY    24  21  88 CALM      30.38S
6HR MIN TEMP:  23; 6HR MAX TEMP:  32;

CLARKSVILLE    PTCLDY    24  21  88 CALM      30.37S
6HR MIN TEMP:  22; 6HR MAX TEMP:  27;

COLUMBIA       CLEAR    N/A N/A N/A CALM      30.36R


...WESTERN KENTUCKY...

CITY           SKY/WX    TMP DP  RH WIND       PRES   REMARKS
PADUCAH        PTCLDY    25  22  88 CALM      30.38R
6HR MIN TEMP:  25; 6HR MAX TEMP:  28;

FORT CAMPBELL  MOCLDY    24  22  90 CALM      30.38R
6HR MIN TEMP:  24; 6HR MAX TEMP:  29;



...CENTRAL ARKANSAS...

CITY           SKY/WX    TMP DP  RH WIND       PRES   REMARKS
LITTLE ROCK    CLOUDY    40  28  62 E3        30.35S
6HR MIN TEMP:  39; 6HR MAX TEMP:  40;



SKY/WX REPORTED AS FAIR MEANS FEW OR NO CLOUDS BELOW
12 THOUSAND FEET.



USA.gov is the U.S. government's official web portal to all federal, state and local government web resources and services.